軌道要素
Epoch 2017 July 26.0 TT = JDT 2457960.5
T 2017 July 10.64689 TT MPCW
q 1.9355778 (2000.0) P Q
n 0.30438735 Peri. 143.98720 +0.44799583 -0.88994298
a 2.1886937 Node 279.25791 +0.79868294 +0.44133153
e 0.1156470 Incl. 4.96660 +0.40175278 +0.11501297
P 3.24
From 184 observations 2005 Jan. 17-2018 Mar. 7, mean residual 0".3.
|